Location: Aghk�ilisa
(40.0189°N, 45.0097°E)
Time: 23:57:00
(UTC+00:00)

Lacrosse 5 - Pass Details

Date: 21 October 2019
Orbit: 715 x 724 km, 57.0° (Epoch: 12 November)

Event Time Altitude Azimuth Distance (km) Brightness Sun altitude
Rises 16:41:24 0° 311° (NW) 3,121 6.0 -29.1°
Reaches altitude 10° 16:43:50 10° 305° (NW) 2,197 5.1 -29.6°
Enters shadow 16:48:16 45° 248° (WSW) 964 2.7 -30.4°
